Wind_Speed
16 16 15 14 13 11 10 9 9 8 6 7 8 9 9 9 9 9 9 9 9 8 8 8 8 8 9 9 10 10 11 11 12 12 13 13 14 15 15 14 15 15 15 16 15 15 15 15 14
17 17 16 15 14 12 11 11 10 11 9 7 8 9 10 10 10 10 10 10 10 10 10 10 10 9 10 10 10 11 12 12 13 13 14 14 15 15 15 15 15 16 16 16 16 16 16 16 16
17 17 16 15 14 12 11 12 12 13 11 8 8 10 11 12 12 11 11 10 11 10 10 11 11 11 11 11 12 12 13 13 14 14 15 15 15 16 16 16 16 16 16 16 16 16 16 16 17
17 16 15 14 12 12 12 12 12 12 11 9 8 10 11 12 12 11 11 12 12 11 12 12 13 13 13 13 13 13 14 14 15 15 15 16 16 17 17 17 17 17 17 17 17 17 17 17 17
16 16 14 13 12 12 13 13 11 10 10 11 9 11 14 15 13 13 13 13 13 12 13 14 13 13 13 14 14 14 14 14 15 16 16 17 17 17 18 18 17 17 17 17 17 17 17 17 17
17 15 15 14 13 13 14 13 11 10 10 11 12 13 15 14 14 14 14 14 13 12 13 14 13 14 14 14 14 14 14 15 15 16 17 17 17 18 17 18 17 17 17 17 17 18 18 18 18
17 16 15 15 14 13 13 13 13 13 12 13 14 14 14 14 15 15 15 14 14 14 15 14 13 14 14 14 14 15 15 16 16 17 17 17 17 17 17 17 17 17 17 18 18 19 19 18 18
16 16 15 14 14 13 14 14 15 15 14 15 15 16 15 15 16 16 16 15 14 14 15 14 14 15 15 15 15 15 16 16 17 18 18 17 18 18 18 18 18 19 19 19 19 19 19 19 19
15 14 13 13 14 14 15 16 17 15 15 15 15 16 17 16 16 17 17 17 15 15 15 16 16 16 16 16 16 17 17 17 18 19 19 18 18 18 19 19 19 20 20 20 20 19 19 20 20
14 13 12 13 15 15 15 17 17 17 15 15 16 18 18 18 17 17 18 18 17 16 16 17 16 16 16 16 17 18 18 18 18 19 19 19 18 19 19 19 20 21 21 20 20 20 20 20 20
13 13 14 15 15 14 15 16 16 17 16 16 17 18 20 20 19 19 19 18 18 18 17 16 16 17 18 18 18 18 19 19 19 19 19 19 19 19 20 20 21 21 21 21 21 21 21 21 21
13 14 15 16 16 14 15 16 16 16 18 19 19 19 21 21 21 21 22 21 20 19 18 17 18 18 19 20 19 19 20 20 19 19 20 19 19 19 20 20 21 20 20 20 21 21 21 21 22
12 14 15 16 16 15 15 15 16 16 18 19 19 21 22 22 21 22 23 23 21 20 19 18 17 18 20 20 19 20 20 19 18 19 19 19 19 20 20 21 21 22 21 21 20 20 20 21 21
10 11 14 14 14 13 14 14 15 16 17 18 19 20 21 22 21 21 22 23 22 21 20 18 18 19 21 21 20 20 20 20 20 19 19 20 21 21 22 22 22 22 22 22 22 21 21 21 22
9 10 11 13 14 13 14 15 16 16 18 18 20 21 22 22 22 21 22 22 22 21 20 19 20 21 21 20 21 21 21 21 21 21 21 22 23 23 23 23 24 23 23 22 22 22 23 23 22
7 9 11 11 12 12 14 14 14 17 19 19 20 22 22 22 21 21 22 22 22 22 21 21 22 22 22 22 22 22 22 22 22 23 23 24 25 24 25 24 24 24 24 23 24 23 24 24 23
8 8 9 10 10 11 13 14 15 17 18 19 20 21 21 21 20 19 20 20 21 22 23 22 22 22 22 22 22 22 22 23 23 24 24 25 25 25 24 24 24 24 24 25 25 24 25 24 24
7 9 10 11 11 12 14 14 14 16 17 19 21 21 19 18 18 18 18 20 20 21 22 22 22 22 22 23 23 23 23 24 24 26 26 26 26 24 24 25 25 25 25 25 25 25 25 25 25
9 10 11 11 12 14 15 15 15 15 16 17 18 19 19 19 19 18 19 20 20 19 20 21 22 22 22 22 23 23 23 24 25 27 27 27 26 25 25 26 26 25 25 26 26 25 25 26 25
10 11 12 13 13 14 14 15 14 15 16 17 17 17 17 18 17 17 19 19 19 19 18 21 22 22 22 23 23 23 25 25 26 28 29 27 26 27 27 27 27 26 26 26 27 26 26 26 25
12 13 14 15 15 15 15 14 14 14 15 15 16 16 16 15 14 16 18 17 19 20 21 20 21 22 22 23 24 25 25 26 28 28 28 29 28 28 28 27 27 27 27 26 26 25 25 26 26
11 14 15 15 15 14 13 12 11 12 14 15 16 16 16 16 16 15 17 18 19 20 20 21 21 22 23 24 24 25 26 27 28 28 27 28 29 28 27 27 27 27 27 27 27 27 26 27 27
13 14 14 14 14 13 11 12 12 13 13 14 15 15 15 15 16 16 17 18 18 19 20 21 21 21 23 25 26 26 27 27 27 27 27 27 27 27 27 27 27 28 28 28 28 28 28 28 27
13 13 13 13 12 13 13 13 13 12 13 13 13 14 14 15 15 16 17 18 18 18 20 20 20 22 24 25 25 26 27 27 27 27 27 26 27 27 27 27 27 27 27 27 27 28 28 28 28
12 13 13 13 11 12 13 14 13 12 12 12 12 13 13 13 14 16 17 17 17 18 19 21 22 23 24 25 25 26 26 27 27 26 26 26 27 27 27 27 27 26 26 26 27 27 28 27 27
12 12 13 12 12 11 12 13 13 12 12 12 12 12 11 13 14 15 16 17 18 19 20 22 23 23 23 24 25 25 25 25 25 25 25 26 26 27 27 27 26 27 27 27 27 27 28 27 26
11 11 11 12 12 12 11 11 12 11 10 10 10 11 12 13 15 15 15 17 18 19 20 21 21 21 22 23 24 23 24 24 24 25 25 25 25 25 26 26 26 26 26 27 27 26 26 26 26
10 10 11 11 12 11 11 11 10 8 9 11 10 11 12 13 13 14 15 17 17 18 18 18 19 20 21 22 23 23 23 23 24 24 24 24 24 23 24 25 25 25 25 25 25 25 26 26 25
8 9 10 11 11 12 12 11 9 9 11 10 10 11 12 12 12 14 16 16 16 17 17 18 18 18 20 20 21 21 22 23 23 23 23 23 23 23 24 24 24 24 24 24 24 25 25 24 24
9 10 10 10 10 11 12 12 10 10 11 11 11 13 14 12 13 14 15 15 15 16 17 18 17 17 18 20 21 21 21 21 21 22 22 22 23 23 23 23 22 22 23 24 24 24 24 24 24
Wind_Direction
224 222 221 220 219 218 212 209 211 211 218 232 244 241 243 255 265 270 272 278 282 285 282 289 292 294 297 297 299 300 300 299 299 298 299 299 298 299 298 299 300 302 301 301 301 299 298 295 293
223 222 221 220 220 216 212 212 217 217 226 242 252 251 254 264 269 274 277 280 286 282 276 280 285 289 294 293 294 295 297 296 296 296 297 297 297 297 296 297 298 299 299 299 299 297 295 294 293
224 222 220 218 216 214 210 213 220 223 231 237 249 259 265 270 269 270 274 282 285 280 277 278 283 284 287 289 290 292 294 294 294 294 296 296 297 297 296 297 298 298 298 298 297 296 295 294 293
223 220 219 213 209 210 212 215 220 228 239 242 244 259 266 272 275 275 275 276 279 281 281 280 284 283 285 286 288 291 292 292 294 294 295 296 295 298 298 298 298 298 297 296 296 295 294 294 293
221 220 218 210 207 208 209 217 222 233 244 252 257 261 269 272 273 274 277 277 277 276 280 281 281 282 283 283 284 287 290 292 293 294 296 296 295 296 297 298 298 297 297 296 295 295 294 293 292
223 222 215 209 208 208 210 217 226 244 254 254 256 264 268 267 271 274 275 276 273 274 282 284 284 283 281 282 284 286 288 290 292 293 297 297 296 296 297 298 297 297 298 296 294 294 293 290 289
222 218 215 210 211 211 214 222 232 241 251 252 252 264 266 270 272 277 275 273 275 278 281 282 283 284 283 284 287 286 287 289 290 293 294 294 296 296 296 296 296 295 296 296 294 293 292 290 288
218 217 212 211 208 212 223 230 235 245 255 256 258 265 269 269 274 279 279 276 276 278 279 279 280 282 282 285 288 289 289 290 291 292 292 292 293 294 294 294 294 294 294 294 293 292 291 289 288
217 217 214 213 214 216 226 234 239 245 251 259 263 270 270 271 276 279 279 277 279 276 274 273 277 281 284 286 286 288 289 291 292 292 292 292 292 292 292 292 293 294 294 293 291 289 289 288 288
213 210 207 212 217 216 222 235 240 250 257 260 267 271 274 275 276 278 278 276 276 274 274 274 274 279 281 283 285 286 287 290 293 293 290 289 289 290 291 292 293 293 294 294 293 291 288 288 288
209 208 206 211 217 217 223 234 244 256 263 262 263 269 274 274 274 275 277 274 273 273 274 275 273 277 279 281 284 286 288 288 290 291 290 288 288 290 291 292 293 293 294 294 293 292 290 289 290
212 210 211 217 221 224 228 235 245 255 260 260 261 263 265 270 272 273 274 277 276 277 277 274 274 278 280 280 281 283 286 287 288 290 290 290 291 291 292 291 291 292 294 296 294 292 292 291 290
216 215 220 225 231 236 237 242 249 254 260 260 259 262 265 269 273 274 274 276 277 277 276 275 275 279 281 280 280 284 286 288 290 289 289 291 292 293 294 294 294 292 291 293 293 292 293 294 293
222 223 226 234 243 244 249 249 255 260 262 261 263 267 267 267 270 272 273 275 275 275 275 275 276 277 279 278 281 282 284 286 289 289 291 292 293 295 295 294 295 295 292 293 293 292 292 292 292
226 230 232 241 248 251 257 258 259 268 268 266 265 266 266 268 271 272 274 275 274 275 273 275 278 279 276 276 279 281 283 287 289 291 294 294 294 294 295 295 297 297 296 295 292 291 292 290 290
240 238 236 241 249 254 259 264 265 270 271 271 267 265 267 270 271 271 273 276 275 276 277 278 280 278 275 278 280 282 284 285 289 289 291 293 295 294 294 294 296 296 296 295 293 289 292 291 289
241 245 242 243 251 260 262 269 272 272 270 269 267 266 268 272 273 272 273 275 277 277 277 279 280 277 275 279 279 281 283 287 287 288 291 293 293 292 295 294 294 294 295 294 293 289 292 290 290
250 253 251 255 261 266 264 265 270 270 269 268 268 268 270 278 274 273 274 275 277 278 278 279 279 276 276 278 278 280 283 287 288 289 292 292 292 290 293 294 294 295 294 294 293 290 291 290 290
265 267 264 260 265 266 266 266 270 271 270 272 273 274 277 281 278 275 276 277 278 278 276 274 275 275 275 279 281 283 285 287 287 289 292 293 291 289 291 292 292 293 294 294 293 292 291 290 290
273 275 271 270 267 266 268 266 269 268 270 273 275 278 282 284 278 277 278 276 276 278 278 273 276 277 277 280 283 285 286 286 288 291 293 294 293 290 290 291 291 292 292 293 293 292 290 291 291
275 275 275 271 267 266 274 273 274 275 275 275 274 277 281 284 278 278 278 278 280 280 283 280 279 278 279 281 282 284 286 287 290 292 292 293 293 291 290 290 290 290 291 292 292 290 289 290 290
282 276 274 274 274 271 272 272 276 279 277 277 275 279 283 287 285 282 284 285 284 283 286 285 286 284 283 284 284 285 287 290 290 291 293 293 294 292 290 290 290 290 291 291 290 289 289 289 289
290 285 281 282 278 269 267 275 276 276 279 280 280 284 284 284 282 284 288 290 289 290 290 288 289 288 289 289 289 288 290 290 292 292 291 291 292 293 293 293 292 290 290 291 290 288 289 289 289
296 296 284 279 275 268 266 272 274 279 288 288 287 288 284 284 286 288 290 292 292 292 292 290 291 292 292 291 290 290 293 294 295 293 291 292 293 293 293 293 292 291 289 290 290 289 290 289 290
301 298 290 280 276 271 270 273 279 285 284 285 286 284 287 290 287 285 289 294 292 293 293 293 293 292 293 293 292 292 295 295 295 296 295 294 293 293 293 292 292 292 291 291 291 291 292 292 291
314 305 301 295 295 287 276 277 282 285 289 291 289 284 287 289 286 284 288 293 294 296 297 296 296 295 295 296 296 295 295 297 297 297 298 297 295 295 293 294 293 293 293 292 292 292 294 293 292
309 306 303 298 300 297 293 290 286 287 291 293 293 290 291 292 290 290 295 298 300 301 301 300 299 298 297 297 297 298 298 299 300 299 300 300 299 296 295 294 293 293 294 295 294 294 296 295 295
301 304 305 299 297 298 291 292 294 294 292 292 291 300 304 304 298 299 302 302 302 303 304 304 303 302 302 300 298 298 298 300 301 301 300 302 300 299 296 295 294 294 295 296 295 297 299 299 299
289 298 306 306 300 300 302 301 300 294 301 303 309 313 312 312 307 309 309 306 305 306 307 307 305 304 304 304 302 302 301 301 302 303 302 301 300 301 300 298 298 296 296 297 297 299 299 299 299
303 306 310 314 313 308 306 310 305 298 303 303 308 310 307 309 313 313 311 313 312 313 314 313 311 309 308 307 306 307 306 304 304 304 305 304 302 303 304 301 299 298 298 298 299 299 299 299 300
Height
5882 5883 5885 5888 5890 5891 5891 5893 5893 5894 5893 5894 5894 5894 5894 5896 5897 5899 5897 5896 5896 5896 5896 5896 5896 5896 5895 5895 5894 5894 5893 5892 5891 5890 5889 5888 5887 5885 5884 5883 5882 5881 5879 5878 5876 5875 5873 5872 5871
5878 5880 5883 5885 5886 5887 5890 5890 5891 5891 5891 5891 5892 5892 5892 5893 5894 5895 5894 5894 5894 5895 5895 5895 5895 5894 5894 5893 5893 5892 5892 5891 5890 5889 5887 5886 5885 5883 5882 5881 5880 5878 5877 5876 5874 5873 5871 5870 5868
5875 5877 5880 5882 5883 5885 5887 5887 5888 5888 5888 5890 5891 5891 5891 5891 5892 5893 5893 5893 5893 5893 5893 5893 5893 5892 5892 5892 5891 5890 5889 5889 5888 5887 5885 5884 5882 5881 5880 5878 5877 5876 5875 5873 5872 5870 5869 5868 5866
5872 5874 5877 5880 5881 5882 5884 5885 5885 5885 5886 5887 5888 5889 5888 5890 5890 5890 5891 5891 5892 5891 5891 5891 5890 5890 5890 5889 5889 5888 5887 5886 5885 5884 5883 5881 5880 5878 5877 5876 5875 5873 5872 5871 5869 5868 5866 5865 5863
5869 5871 5874 5877 5878 5879 5881 5883 5882 5883 5884 5885 5885 5885 5886 5887 5888 5888 5888 5889 5889 5889 5889 5888 5888 5887 5887 5887 5886 5885 5885 5884 5882 5881 5880 5878 5877 5876 5875 5873 5872 5871 5869 5868 5866 5865 5863 5862 5860
5866 5868 5871 5874 5876 5877 5878 5879 5880 5881 5881 5882 5882 5883 5883 5884 5885 5886 5886 5886 5887 5886 5886 5886 5885 5885 5884 5884 5883 5883 5882 5881 5880 5878 5877 5876 5874 5873 5872 5870 5869 5867 5866 5864 5863 5861 5860 5858 5857
5863 5866 5868 5871 5873 5875 5876 5875 5876 5877 5877 5878 5879 5879 5879 5881 5883 5883 5884 5884 5884 5884 5883 5883 5882 5882 5882 5881 5880 5880 5879 5877 5876 5875 5874 5872 5871 5870 5868 5867 5865 5864 5862 5861 5859 5858 5856 5854 5853
5860 5863 5865 5868 5870 5872 5872 5872 5873 5874 5875 5876 5876 5877 5877 5879 5879 5880 5881 5881 5881 5881 5880 5880 5879 5879 5879 5878 5877 5876 5875 5874 5873 5872 5870 5869 5867 5866 5865 5863 5862 5860 5859 5857 5856 5854 5852 5850 5849
5857 5861 5863 5865 5867 5868 5869 5869 5870 5870 5871 5873 5873 5874 5875 5875 5876 5877 5877 5877 5877 5877 5877 5876 5876 5876 5875 5875 5874 5873 5872 5871 5869 5868 5867 5865 5864 5862 5861 5860 5858 5857 5855 5853 5852 5850 5848 5846 5844
5855 5858 5861 5862 5864 5864 5865 5867 5867 5868 5869 5871 5871 5871 5871 5872 5873 5873 5873 5873 5873 5874 5873 5873 5873 5872 5872 5871 5870 5869 5868 5867 5866 5864 5863 5861 5860 5859 5857 5856 5854 5852 5851 5849 5847 5845 5843 5841 5839
5852 5856 5858 5859 5860 5861 5863 5864 5864 5864 5866 5867 5868 5868 5868 5869 5869 5870 5870 5868 5869 5870 5870 5870 5870 5869 5868 5867 5866 5865 5864 5863 5861 5860 5859 5857 5856 5854 5853 5851 5849 5848 5846 5844 5842 5840 5838 5836 5835
5850 5853 5855 5856 5857 5858 5860 5861 5862 5862 5862 5863 5863 5864 5865 5865 5865 5866 5865 5865 5865 5866 5865 5865 5865 5865 5864 5863 5862 5861 5860 5858 5857 5856 5855 5853 5851 5849 5848 5846 5844 5843 5841 5839 5837 5835 5833 5831 5830
5848 5851 5852 5853 5854 5855 5856 5858 5858 5858 5858 5859 5860 5860 5861 5861 5861 5862 5862 5861 5861 5862 5861 5860 5861 5860 5859 5858 5857 5856 5855 5854 5852 5851 5850 5848 5847 5845 5843 5841 5839 5838 5836 5833 5831 5830 5828 5826 5824
5847 5849 5850 5851 5852 5852 5853 5855 5855 5855 5855 5855 5855 5856 5856 5857 5857 5857 5857 5857 5857 5857 5857 5856 5856 5855 5854 5853 5852 5851 5850 5848 5847 5846 5844 5843 5842 5840 5838 5836 5834 5831 5829 5828 5826 5824 5823 5821 5819
5845 5847 5848 5848 5849 5849 5850 5851 5852 5852 5852 5852 5851 5852 5852 5852 5853 5853 5853 5853 5852 5852 5852 5851 5851 5850 5849 5847 5846 5845 5845 5843 5842 5841 5839 5838 5837 5835 5833 5831 5829 5826 5825 5822 5821 5819 5817 5815 5813
5843 5844 5845 5846 5846 5846 5848 5848 5848 5848 5847 5847 5847 5847 5848 5848 5848 5849 5849 5848 5848 5847 5847 5847 5846 5846 5845 5844 5843 5841 5840 5838 5837 5836 5834 5833 5831 5829 5827 5825 5823 5821 5819 5817 5815 5812 5811 5809 5807
5841 5841 5841 5842 5842 5843 5843 5843 5844 5843 5843 5843 5843 5843 5843 5844 5844 5844 5844 5843 5843 5842 5842 5841 5841 5840 5840 5839 5838 5837 5835 5834 5832 5831 5829 5827 5825 5823 5821 5819 5817 5815 5813 5811 5809 5806 5804 5803 5801
5839 5839 5839 5839 5839 5839 5838 5839 5840 5839 5838 5838 5839 5839 5839 5840 5839 5839 5838 5838 5838 5837 5837 5836 5835 5834 5834 5833 5832 5831 5830 5828 5827 5825 5823 5821 5818 5816 5815 5813 5811 5809 5806 5804 5802 5801 5798 5796 5794
5836 5835 5835 5836 5836 5835 5835 5835 5835 5835 5834 5834 5833 5834 5834 5835 5835 5834 5834 5833 5833 5832 5831 5830 5829 5828 5828 5827 5826 5826 5824 5823 5821 5819 5816 5814 5811 5810 5808 5806 5804 5802 5800 5798 5796 5793 5791 5789 5787
5832 5832 5831 5832 5832 5832 5831 5831 5831 5831 5830 5829 5829 5829 5830 5830 5830 5830 5829 5828 5827 5826 5825 5825 5824 5823 5822 5821 5820 5819 5818 5816 5814 5812 5810 5808 5805 5803 5801 5799 5797 5795 5793 5791 5789 5786 5784 5782 5780
5829 5829 5828 5828 5828 5828 5828 5828 5827 5827 5826 5825 5825 5826 5826 5826 5825 5825 5824 5823 5822 5822 5821 5820 5819 5817 5816 5815 5814 5813 5811 5810 5808 5806 5804 5801 5799 5797 5794 5792 5790 5788 5786 5783 5782 5779 5777 5775 5772
5827 5826 5825 5824 5824 5824 5825 5824 5824 5823 5822 5822 5822 5822 5822 5822 5820 5819 5819 5818 5818 5817 5816 5815 5814 5812 5810 5809 5808 5806 5805 5803 5801 5798 5796 5794 5792 5790 5787 5785 5783 5781 5778 5776 5774 5772 5770 5767 5765
5824 5823 5822 5821 5821 5821 5821 5820 5821 5819 5819 5818 5817 5817 5817 5817 5816 5815 5815 5814 5813 5812 5811 5809 5807 5806 5805 5803 5801 5799 5798 5796 5793 5791 5789 5787 5785 5783 5780 5778 5776 5773 5771 5769 5767 5764 5762 5760 5757
5821 5820 5819 5819 5818 5818 5818 5818 5818 5816 5815 5814 5813 5812 5812 5812 5811 5811 5810 5810 5809 5808 5806 5804 5801 5800 5799 5797 5795 5793 5791 5788 5786 5784 5782 5780 5778 5775 5773 5771 5768 5766 5764 5762 5759 5757 5754 5752 5750
5819 5818 5816 5815 5814 5814 5815 5814 5815 5813 5811 5809 5809 5809 5808 5808 5807 5807 5806 5805 5804 5802 5800 5798 5796 5794 5793 5790 5788 5786 5784 5782 5780 5777 5774 5772 5770 5768 5765 5763 5761 5759 5756 5754 5751 5749 5747 5744 5742
5816 5815 5814 5812 5811 5811 5811 5811 5811 5809 5807 5806 5805 5805 5804 5804 5804 5803 5802 5801 5799 5797 5795 5792 5790 5788 5786 5784 5782 5779 5777 5775 5772 5770 5768 5765 5763 5760 5758 5756 5754 5752 5749 5747 5744 5741 5739 5736 5734
5813 5812 5811 5809 5808 5808 5808 5808 5807 5806 5805 5803 5803 5802 5802 5801 5800 5799 5797 5796 5794 5792 5790 5787 5785 5782 5780 5778 5775 5773 5771 5768 5766 5763 5760 5758 5756 5753 5751 5749 5747 5745 5742 5739 5737 5734 5732 5729 5726
5811 5810 5809 5807 5805 5805 5805 5804 5804 5803 5802 5801 5800 5800 5799 5798 5797 5795 5793 5791 5789 5787 5784 5782 5779 5777 5774 5772 5770 5767 5765 5762 5760 5757 5754 5752 5749 5747 5745 5742 5740 5738 5735 5733 5730 5727 5725 5722 5719
5809 5808 5806 5805 5804 5802 5801 5803 5801 5801 5800 5799 5798 5797 5796 5794 5793 5791 5789 5787 5785 5783 5780 5777 5774 5771 5769 5767 5764 5762 5759 5756 5754 5751 5748 5746 5743 5741 5738 5735 5733 5731 5729 5726 5723 5720 5718 5715 5712
5807 5806 5804 5803 5802 5800 5798 5801 5798 5798 5796 5795 5794 5793 5792 5790 5789 5788 5785 5783 5781 5778 5776 5772 5769 5767 5764 5761 5759 5756 5753 5751 5748 5746 5743 5740 5737 5735 5732 5729 5727 5725 5722 5720 5717 5714 5711 5708 5705